CAPE
0 0 0 0 0 1 1 1 1 1 0 1 0 1 0 0 0 3 3 8 8 2 1 1 0 4 5 8 3 12 10 5 0 0 0 3 0 0 1 17 10 0 11 12 13 12 2 1 0 0 0 1 1 1
0 0 0 0 0 1 0 1 1 0 0 1 0 2 0 0 0 0 3 1 0 1 0 0 0 0 2 8 4 16 16 13 3 0 0 0 0 0 0 1 1 6 27 14 19 3 4 2 5 2 0 5 9 3
0 0 0 0 1 1 0 1 1 0 0 0 1 1 0 0 0 0 3 5 1 0 0 2 14 0 0 0 6 10 0 4 10 2 1 0 0 0 0 0 0 0 1 1 0 1 1 5 6 25 16 9 20 4
0 0 0 0 1 1 0 1 1 1 0 1 1 0 0 0 0 0 1 0 0 0 2 8 0 2 0 0 0 1 9 3 0 1 7 2 0 3 0 0 0 1 1 0 0 2 5 8 6 11 14 31 19 15
0 0 0 0 0 1 0 1 1 0 0 0 0 0 0 0 0 0 1 0 0 0 3 3 0 0 0 0 0 0 2 12 16 6 6 3 7 1 6 3 0 3 1 0 1 5 6 7 6 4 2 3 2 1
0 0 0 0 0 1 0 1 1 0 0 0 0 0 0 0 0 2 1 0 0 0 2 15 3 0 0 0 0 5 0 0 2 22 13 17 20 10 0 0 2 8 11 4 4 11 4 7 12 15 2 8 8 4
0 0 0 0 0 1 0 0 1 0 0 0 0 0 0 0 2 4 0 0 0 1 0 3 21 12 0 0 0 0 0 0 1 2 8 5 23 17 0 2 3 20 17 12 12 6 5 5 7 17 11 10 6 4
0 0 0 0 0 0 0 0 0 0 0 0 0 0 0 0 0 0 0 0 0 1 1 0 28 33 2 28 12 0 4 11 1 7 10 9 17 7 0 24 29 25 18 14 12 11 9 9 13 9 11 11 3 4
0 0 0 0 0 0 0 0 0 0 0 0 0 0 0 0 1 0 0 0 1 1 2 0 18 17 15 22 0 0 0 10 0 19 6 3 0 2 24 20 13 17 13 28 18 12 3 0 3 6 3 6 5 4
0 0 0 0 0 0 0 0 0 0 0 0 0 2 0 1 0 0 0 1 4 3 1 0 0 1 18 21 23 3 0 1 1 1 10 10 12 14 9 17 9 8 15 19 13 15 10 4 1 2 5 3 3 5
0 0 0 0 0 0 0 0 0 0 0 0 0 4 0 0 1 2 0 0 0 0 0 0 0 0 7 42 55 38 1 4 1 4 7 15 16 6 6 12 12 16 22 19 25 30 25 23 14 7 5 7 1 0
0 0 0 0 0 0 0 0 0 0 0 0 0 0 0 1 2 0 10 5 7 1 13 0 5 0 6 65 33 99 31 16 17 0 7 0 20 9 12 16 17 17 15 23 22 32 25 25 29 24 12 9 6 6
0 0 0 0 0 0 0 0 0 0 0 0 0 4 18 86 1 9 17 25 34 5 0 0 0 0 2 34 149 78 6 24 0 17 0 13 18 19 16 25 27 19 14 13 28 22 20 22 24 25 24 17 12 7
0 0 0 0 0 0 0 0 0 0 0 0 28 1 0 3 7 23 5 1 0 0 0 0 0 142 188 109 19 23 11 2 8 0 2 20 28 29 31 24 37 34 19 12 10 28 25 14 16 11 9 8 8 15
0 0 0 0 0 0 0 0 0 0 0 0 24 0 1 20 11 21 0 0 2 0 0 0 7 21 5 0 0 0 1 2 0 11 20 29 14 21 26 40 41 46 26 23 14 17 31 16 4 1 1 2 13 22
0 0 0 0 0 0 0 1 0 0 0 0 4 34 32 22 25 35 12 15 3 0 0 0 0 2 6 5 8 7 0 1 6 0 0 3 17 13 4 0 6 63 34 44 26 24 26 28 0 0 1 0 1 2
0 0 0 0 0 0 0 0 0 0 0 25 13 20 26 48 82 77 10 1 0 0 24 0 0 1 0 0 1 0 2 0 0 0 0 0 9 13 5 8 49 83 73 67 40 21 18 20 4 5 0 0 0 1
0 0 0 0 0 0 0 0 0 5 95 7 6 10 86 82 95 22 0 0 0 27 0 6 0 0 1 4 4 0 0 0 0 0 0 5 16 27 12 15 36 64 95 90 45 40 30 23 21 16 1 0 3 1
0 0 0 0 1 0 0 0 0 10 15 0 2 32 72 54 8 6 13 3 0 0 0 4 2 8 2 2 0 0 15 1 3 2 0 0 17 0 2 6 10 51 96 65 51 25 30 9 3 12 16 17 7 2
0 0 0 0 0 0 0 159 189 348 102 79 62 123 87 24 191 55 0 0 5 0 9 22 6 0 0 0 0 6 3 1 25 29 16 1 0 0 0 0 1 33 56 28 18 3 18 9 19 21 10 0 10 4
0 0 0 0 0 0 0 105 227 222 6 21 64 175 317 337 172 36 2 0 0 13 36 5 0 0 0 1 63 64 4 24 51 27 0 0 0 0 0 0 0 7 31 33 34 9 6 17 28 28 22 28 24 18
0 0 0 0 6 302 435 629 444 482 206 219 236 322 369 269 150 18 19 5 10 22 25 57 77 138 121 157 188 201 106 63 116 0 0 0 0 1 2 2 21 29 29 23 22 37 29 25 19 24 29 20 10 8
0 0 7 39 288 290 100 2 102 107 150 307 202 59 170 166 82 61 10 36 34 90 150 78 100 236 156 117 154 86 74 124 88 0 0 0 0 0 0 4 4 2 13 13 7 26 28 7 11 34 34 19 13 15
0 95 150 279 454 106 310 379 190 292 426 247 93 47 107 50 124 44 23 34 67 136 128 169 210 148 75 77 99 129 102 92 36 0 0 0 7 0 0 0 15 8 0 18 28 44 47 29 12 46 31 20 17 11
0 0 0 0 2 85 85 102 212 212 192 228 89 84 204 58 75 13 12 33 49 57 97 96 138 72 35 63 59 32 27 8 14 21 9 0 0 2 7 8 18 0 10 44 32 56 63 55 69 72 35 33 19 16
0 0 0 0 116 222 199 148 174 256 230 153 147 180 135 105 36 29 18 43 116 181 263 208 189 56 27 0 2 3 2 0 12 34 20 0 2 3 3 9 26 1 38 26 24 30 59 79 50 61 48 16 2 30
0 0 16 25 32 94 260 344 258 223 214 217 290 186 84 4 5 48 3 56 168 129 29 0 0 0 0 0 0 0 0 0 0 0 0 0 0 0 8 21 12 12 37 25 13 14 37 64 60 63 66 41 27 22
0 0 17 214 88 275 369 426 374 322 275 301 184 74 0 0 12 2 0 2 0 0 0 0 0 0 0 0 0 0 0 0 0 0 0 0 0 0 1 17 0 0 11 8 42 61 74 67 50 48 43 26 17 14
0 124 50 178 329 440 553 593 527 480 313 282 219 105 78 15 0 0 0 0 0 0 0 0 0 0 0 0 0 0 0 0 0 0 0 1 5 9 34 23 17 21 22 10 0 0 3 29 13 25 21 13 10 12
13 21 252 287 323 377 589 517 564 426 214 226 112 25 0 0 0 0 0 0 0 0 0 0 0 0 0 0 0 0 0 0 0 0 0 0 0 0 13 19 15 17 23 22 12 2 0 5 3 13 7 12 10 18
55 99 247 351 432 477 332 255 184 170 162 146 66 118 0 0 0 0 0 0 0 0 0 0 0 0 0 0 0 0 0 0 0 0 0 0 0 1 5 8 10 11 10 12 17 13 8 6 5 11 18 14 10 14
214 224 359 452 506 271 167 246 287 336 242 167 187 56 0 0 0 0 0 0 0 0 0 0 0 0 0 0 0 0 0 0 0 0 0 0 0 0 0 0 0 2 5 9 11 11 12 12 7 10 13 8 5 7
402 368 388 345 289 249 221 187 242 263 152 173 183 123 21 17 14 0 0 0 0 0 0 0 0 0 0 0 0 0 0 0 0 0 0 0 0 0 0 0 0 1 1 4 7 7 8 7 9 9 9 8 8 7
CIN
0 0 0 0 0 0 0 0 -1 -2 -5 -6 -10 -14 0 0 0 0 0 0 0 -1 -2 0 -1 0 -1 0 -1 0 -1 0 -1 0 0 0 0 0 0 -2 -24 -1 -6 -1 -2 -2 -1 0 -1 -1 0 0 -1 -1
0 0 0 0 0 0 0 0 -1 -2 -3 -6 -8 -12 0 0 0 0 0 -2 -2 0 -1 0 0 0 -1 0 0 -1 0 0 0 0 0 0 0 0 0 0 -1 -4 -7 -6 -2 -6 -1 0 0 0 0 0 -1 -1
0 0 0 0 0 0 0 0 0 -1 0 -2 -4 -3 0 0 0 0 -1 0 -1 0 -1 -1 -3 0 0 0 -1 0 -3 -1 0 0 0 0 0 0 0 0 0 0 0 -2 0 0 0 0 -1 0 -1 -1 -1 -1
0 0 0 0 0 0 0 0 0 -1 0 -1 -1 0 0 0 0 0 -1 0 -1 0 -1 -1 0 -3 0 0 0 -1 0 -1 0 0 0 0 0 0 0 0 0 0 0 0 0 0 0 0 0 0 -5 -1 -2 0
0 0 0 0 0 0 0 0 -1 0 0 0 0 0 0 0 0 0 -1 0 0 0 -2 -1 0 0 0 0 0 0 -8 -2 -1 -1 0 0 0 0 0 0 0 0 0 0 0 0 0 0 0 0 0 0 0 0
0 0 0 0 0 0 0 0 0 0 0 0 0 0 0 0 0 -2 0 -1 0 0 0 -1 -8 0 0 0 0 -10 0 0 -1 0 0 0 0 0 0 0 0 0 0 0 0 0 0 0 0 0 0 0 0 0
0 0 0 0 0 0 0 0 0 0 0 0 0 0 0 0 -1 -1 -1 0 0 -1 0 -3 -1 -39 0 0 0 0 0 0 -1 0 -1 0 0 0 0 -7 0 0 0 0 0 -1 0 0 0 0 0 0 0 0
0 0 0 0 0 0 0 0 0 0 0 0 0 0 0 0 0 0 0 0 0 -1 -1 0 -2 -3 -5 -1 -4 0 -1 -1 0 0 -1 0 -1 -2 -1 -1 -1 -1 -1 -2 -1 -1 0 0 0 0 0 0 0 0
0 0 0 0 0 0 0 0 0 0 0 0 0 0 -1 -1 -1 -1 0 0 0 0 0 0 -8 -1 -27 -5 0 0 -1 -5 0 0 0 -1 0 -1 -1 -1 0 -2 -1 -1 -2 -2 -2 -1 -1 0 0 0 0 0
0 0 0 0 0 0 0 0 0 0 0 0 0 0 0 0 0 0 0 0 0 0 0 0 0 -14 -5 -3 -3 -2 0 -1 0 0 0 -1 0 -1 0 -1 -1 -2 -1 -1 -1 -1 -1 -1 -1 -1 0 0 0 0
0 0 0 0 0 0 0 0 0 0 0 0 0 -1 -1 0 -1 0 0 0 0 0 0 0 0 0 -18 -12 -25 -7 -4 -5 -1 -1 -1 0 0 -1 -1 -1 -1 -1 -1 -1 0 0 -1 -1 -1 -1 -1 0 0 0
0 0 0 0 0 0 0 0 0 0 0 0 0 0 0 0 -23 0 -6 -28 -14 -4 -6 0 -1 0 -6 -11 -1 -5 0 -1 -1 0 -1 0 -4 -1 -1 -1 -1 -1 -1 -1 -1 0 -1 -1 -1 -1 -1 -1 -1 -2
0 0 0 0 0 0 0 0 0 0 0 0 0 0 -38 -37 -7 -1 -1 -2 -3 -2 0 0 0 0 0 -18 0 -1 -1 -1 0 -1 0 -3 -1 -1 -2 -1 -1 -1 -1 -1 -1 0 -1 -1 -2 -1 -1 -1 -2 -1
0 0 0 0 0 0 0 0 0 0 0 0 -18 -1 0 -2 -3 -4 -5 -3 -1 0 0 0 0 -1 -2 0 -1 -1 -1 -2 -2 0 -3 -2 -1 -1 -1 -1 -2 -2 -1 -1 -1 -1 -1 -1 -1 -2 -2 -2 -1 -2
0 0 0 0 0 0 0 0 0 0 0 0 -22 0 -1 -2 -3 -15 0 0 -1 0 0 0 -1 -1 -4 -1 0 0 -1 -1 0 -3 -3 -2 -1 -2 -1 -1 -1 -1 -1 -3 -2 -2 -1 -1 -1 -2 -2 -3 -2 -1
0 0 0 0 0 0 0 0 0 0 0 0 -35 -11 -4 -2 -3 -12 -5 -3 -4 0 0 0 0 -3 -3 -4 -2 -2 0 -1 -4 0 -1 -1 -2 -3 -2 0 -2 -1 -1 -1 -3 -2 -2 -2 0 -1 -2 0 -2 -2
0 0 0 0 0 0 0 0 0 0 0 -32 -6 -3 -1 -5 -3 -9 -15 -5 0 0 -3 0 0 -5 0 -4 -1 -1 0 0 0 0 0 0 -3 -3 -3 -5 -2 -1 -2 -1 -1 -2 -1 -2 -2 -2 0 0 -1 -1
0 0 0 0 0 0 0 0 0 -48 -14 -33 -14 -4 -6 -19 -18 -12 0 0 -7 -15 -8 -14 0 0 -1 0 0 0 0 -2 0 0 0 -3 -4 -5 -4 -3 -5 -6 -2 -1 -1 -2 -1 -1 -2 -2 -1 0 -3 -2
0 0 0 0 0 0 0 0 0 -10 -31 0 -11 -34 -34 -49 -72 -42 -40 -83 0 0 -1 -7 -3 -4 0 0 0 0 -1 -4 -5 -2 -1 0 -12 0 -12 -4 -2 -2 -3 -2 -2 -4 -4 -14 -5 -2 -2 -3 -3 -3
0 0 0 0 0 0 0 -17 -52 -7 -15 -16 -36 -8 -19 -57 -44 -59 -38 0 -41 -1 -34 -3 -9 0 0 0 0 -3 -2 -13 -4 -4 -4 -3 0 0 0 0 -1 -5 -4 -13 -4 -2 -7 -15 -4 -3 -3 -1 -2 -2
0 0 0 0 0 0 0 -18 -8 -13 -47 -34 -26 -16 -6 -10 -3 -7 -10 0 0 -6 -1 -1 0 0 0 -6 -1 -4 -3 -6 -2 -3 0 0 0 0 0 0 0 -1 -3 -4 -2 -6 -5 -7 -3 -3 -5 -3 -2 -2
0 0 0 0 -8 -22 -21 -13 -14 -17 -28 -12 -8 -17 -1 -1 -2 -15 -14 -5 -9 -2 -3 -4 -6 0 -1 -2 -2 -2 -3 -9 -8 0 0 0 -3 -3 -3 -3 -2 -4 -4 -4 -4 -4 -4 -3 -4 -4 -4 -6 -5 -4
0 0 -48 -96 -16 -28 -55 -9 -44 -32 -11 -7 -19 -14 -1 0 -3 -15 -8 -2 -6 -6 -7 -23 -24 -6 -7 -9 -21 -37 -38 -11 -2 0 0 0 0 0 -2 -3 -3 -4 -4 -5 -2 -2 -4 -6 -6 -3 -3 -4 -4 -4
0 -46 -29 -10 -4 -26 -37 -17 -43 -24 -24 -10 -17 -17 -15 -18 -6 -1 -1 0 -1 -3 -3 -3 -4 -3 -2 -8 -2 -2 -9 -13 -4 0 0 0 -4 -11 0 -2 -3 -3 0 -4 -4 -4 -4 -10 -14 -4 -5 -2 -3 -4
0 0 0 0 -30 -44 -23 -15 -17 -16 -14 -24 -28 -19 -19 -40 -2 -2 -2 -1 -1 -2 -3 -5 -1 -3 -6 -2 -1 -2 -35 -3 -2 -2 -6 -8 -4 -3 -3 -5 -4 0 -3 -4 -3 -3 -5 -3 -1 -3 -8 -2 -2 -1
0 0 0 0 -18 -17 -8 -12 -14 -18 -26 -29 -25 -41 -44 -12 -1 -1 -1 -2 -1 -3 -3 -6 -5 -2 -1 0 0 -2 -1 0 -2 -2 -4 -4 -8 -9 -16 -6 -4 -5 -3 -5 -9 -5 -3 -1 -2 -2 -3 -5 -3 -2
0 0 -21 -50 -61 -44 -26 -42 -64 -38 -27 -18 -21 -25 -17 -2 -1 -1 -1 -9 -2 -10 -12 0 0 0 0 0 0 0 0 0 0 0 0 0 0 -4 -4 -2 -4 -5 -1 -3 -13 -7 -4 -2 -2 -2 -2 -2 -2 -2
0 0 -34 -32 -50 -54 -28 -31 -27 -19 -17 -44 -43 -21 0 0 -8 -6 0 -6 0 0 0 0 0 0 0 0 0 0 0 0 0 0 0 0 0 -1 -3 -1 -1 0 -3 -10 -3 -3 -2 -3 -2 -3 -2 -1 -1 -3
0 -58 -59 -28 -27 -41 -36 -18 -10 -24 -56 -43 -23 -21 -32 -75 0 0 0 0 0 0 0 0 0 0 0 0 0 0 0 0 0 0 0 -3 -3 -2 -1 -2 -3 -3 -2 -5 0 0 -9 -2 -2 -4 -3 -4 -4 -2
-89 -91 -24 -19 -19 -9 -13 -35 -35 -119 -138 -101 -123 -146 0 0 0 0 0 0 0 0 0 0 0 0 0 0 0 0 0 0 0 0 0 0 0 -1 -1 -2 -2 -2 -1 -1 -3 -1 0 -7 -1 -2 -4 -3 -3 -2
-65 -57 -36 -21 -8 -36 -80 -137 -189 -195 -161 -126 -150 -77 0 0 0 0 0 0 0 0 0 0 0 0 0 0 0 0 0 0 0 0 0 0 -1 -2 -2 -1 -1 -2 -2 -2 -2 -3 -3 -3 -3 -2 -2 -2 -4 -4
-36 -30 -11 -8 -14 -136 -188 -126 -112 -94 -110 -128 -109 -131 0 0 0 0 0 0 0 0 0 0 0 0 0 0 0 0 0 0 0 0 0 0 0 0 0 0 -1 -1 -1 -1 -2 -2 -3 -3 -2 -2 -2 -2 -2 -2
-20 -23 -29 -32 -48 -58 -93 -85 -79 -82 -104 -90 -95 -120 -116 -88 -75 0 0 0 0 0 0 0 0 0 0 0 0 0 0 0 0 0 0 0 0 0 0 0 0 -1 -1 -1 -2 -2 -1 -2 -2 -1 -2 -2 -1 -2
Wind_Speed
20 22 23 22 22 26 26 23 20 20 20 19 19 19 19 19 20 21 23 20 23 25 28 27 26 24 24 25 23 23 19 21 18 18 16 15 14 15 15 18 24 25 22 18 32 37 40 21 24 29 30 29 25 27
20 22 23 21 20 23 21 19 20 21 20 20 18 18 17 17 18 18 21 21 18 19 20 20 19 18 20 19 20 19 22 17 16 17 18 16 15 15 16 19 18 20 21 23 23 26 22 25 29 30 30 32 29 28
19 21 21 21 18 20 19 20 19 18 18 18 17 17 17 16 16 15 18 18 18 16 15 15 20 19 19 21 20 23 26 19 16 15 16 19 19 18 20 19 15 16 16 19 19 23 26 25 24 25 29 30 26 26
18 20 20 21 17 21 22 18 17 17 16 16 17 17 17 16 15 13 14 16 14 14 15 16 16 15 17 19 19 16 17 20 19 15 15 18 19 17 18 17 19 14 14 17 17 18 22 21 21 22 19 22 21 22
17 17 18 22 17 20 22 17 16 16 17 17 16 16 16 15 14 11 12 14 14 15 13 14 13 15 14 14 13 14 15 16 18 21 14 15 16 16 7 21 26 15 10 9 11 15 14 16 19 19 16 19 17 15
16 16 18 22 17 17 20 13 14 15 16 16 16 15 14 14 13 14 15 15 13 13 13 14 17 16 13 12 13 11 14 16 18 18 19 17 17 15 17 22 12 15 19 19 17 18 19 18 20 16 17 17 15 14
16 13 17 19 13 14 16 11 13 14 14 15 14 14 13 13 11 12 16 15 13 14 15 14 15 15 16 15 15 13 13 15 17 20 21 16 15 17 19 12 16 20 25 23 22 19 22 21 18 16 13 15 12 13
15 10 7 13 7 11 11 9 11 13 13 14 13 14 13 11 8 11 14 13 13 14 15 16 15 15 15 15 15 16 15 15 18 20 18 21 18 18 17 12 21 27 27 26 25 22 26 20 18 13 14 13 13 14
14 6 20 12 5 8 7 8 10 11 12 13 13 13 13 13 12 13 15 15 14 15 15 15 15 15 14 14 14 15 14 16 16 17 21 19 20 25 22 25 19 20 26 25 26 23 23 24 17 16 15 13 14 15
15 11 21 16 8 6 7 8 10 11 12 13 13 13 13 15 17 16 15 14 14 14 13 13 13 16 12 13 15 17 16 17 18 19 16 20 21 21 22 25 26 20 22 25 25 22 23 23 22 18 17 14 14 15
15 22 20 19 16 10 8 9 11 14 14 13 13 14 15 15 14 14 13 14 14 14 13 11 11 11 14 15 15 15 15 16 18 19 19 21 20 20 20 25 26 22 21 25 25 24 24 24 22 20 18 15 14 14
21 23 21 20 18 10 10 11 13 12 12 14 14 13 15 15 14 14 15 17 14 15 15 13 14 12 14 14 14 14 14 14 16 15 16 21 20 19 19 21 24 26 26 24 24 24 23 23 23 23 19 17 17 17
24 24 22 21 19 11 11 12 11 13 13 14 14 14 14 15 16 16 19 15 15 15 14 14 14 15 15 13 12 14 14 16 16 17 19 18 19 16 17 19 22 23 25 25 23 23 23 23 23 23 22 21 20 18
24 24 23 21 11 10 10 13 12 12 13 13 13 15 15 16 15 17 18 14 14 14 17 16 15 15 15 16 15 14 16 15 16 19 19 21 20 17 16 17 21 24 23 25 25 23 23 23 23 23 22 22 20 19
24 23 17 17 18 9 9 12 12 12 13 12 13 14 13 14 13 14 15 12 12 15 17 18 16 16 16 15 16 17 17 17 17 19 23 22 19 15 16 18 21 23 22 21 24 24 22 22 22 22 21 22 21 20
23 12 14 18 21 18 14 15 13 12 12 12 12 11 10 10 10 8 12 14 18 15 17 17 19 21 18 18 17 17 18 16 20 20 21 21 20 19 20 21 18 17 19 18 22 24 22 22 22 22 21 21 21 20
21 15 13 20 22 13 13 13 12 11 13 13 12 10 8 7 8 16 17 20 18 18 21 21 21 21 19 20 20 20 21 21 21 20 20 19 19 20 22 22 18 17 18 15 19 22 21 20 21 21 22 22 22 21
18 16 13 21 18 13 12 11 12 12 11 10 11 13 15 11 11 13 18 23 21 21 19 21 20 23 21 22 21 20 17 18 20 18 17 18 18 19 21 22 20 19 16 14 17 20 21 19 20 20 21 22 22 22
20 20 20 18 11 12 13 13 12 13 12 10 11 13 14 14 16 15 15 17 19 18 20 20 21 23 24 17 15 18 22 19 20 19 18 19 21 21 21 21 20 18 14 14 16 19 20 20 21 20 20 22 22 21
19 18 16 12 14 13 13 13 13 12 12 17 15 18 18 18 18 19 19 19 19 21 22 22 23 21 16 15 15 19 17 12 14 19 21 22 21 20 22 22 21 18 13 13 15 19 18 17 18 19 20 21 21 22
11 13 14 13 13 12 12 14 14 13 13 15 18 18 20 20 22 23 22 20 23 22 22 22 20 18 15 13 14 15 13 11 14 19 20 20 20 21 22 22 20 17 14 15 14 16 17 18 18 18 19 20 19 20
15 12 12 13 13 14 13 13 13 15 15 16 18 21 22 22 23 22 20 24 22 22 23 20 18 16 15 13 12 11 10 12 14 14 14 15 17 19 20 20 20 19 18 19 19 19 18 17 17 17 18 18 17 18
11 13 13 13 14 14 14 14 14 15 15 17 19 20 22 23 22 19 22 22 21 19 19 19 17 16 14 17 18 16 13 11 12 13 15 15 17 18 18 19 20 20 20 20 20 17 17 16 15 17 18 17 18 18
17 2 13 13 13 14 14 14 15 15 15 17 18 21 22 23 20 21 23 23 20 20 19 18 18 19 18 14 16 16 14 12 12 14 13 10 13 16 17 17 19 21 19 19 20 17 15 15 18 17 16 17 18 19
16 14 13 14 13 14 14 14 14 14 16 16 18 20 21 20 20 21 23 22 21 22 21 19 17 18 18 18 18 18 16 13 13 12 13 10 11 13 13 16 20 20 18 18 17 17 16 18 18 17 18 17 18 18
17 15 16 15 15 14 14 14 15 15 15 16 18 18 19 20 21 23 22 22 20 20 20 19 17 17 19 21 20 19 18 15 13 11 16 13 12 13 14 14 19 15 19 20 19 19 16 16 15 16 16 16 16 17
17 16 16 15 14 13 13 15 15 15 16 17 17 18 19 22 23 21 20 21 20 21 20 19 20 21 20 20 19 19 18 18 18 18 18 17 17 17 17 17 17 16 13 16 14 15 15 14 15 15 14 15 15 14
17 17 16 15 13 13 13 14 15 15 16 17 17 18 19 20 21 20 20 20 21 21 22 22 22 22 23 23 21 19 19 20 21 22 24 23 21 21 22 21 21 19 21 19 16 17 17 17 15 14 13 14 13 13
16 15 14 13 13 13 13 14 14 15 14 14 15 16 17 18 18 18 19 20 20 20 20 21 20 21 22 23 23 22 20 17 17 18 17 20 21 20 20 21 21 21 20 22 21 18 17 18 16 17 13 11 12 12
13 13 13 14 14 14 14 13 14 15 14 14 16 16 16 17 16 17 18 18 19 20 19 19 19 20 20 21 23 24 24 23 22 21 22 22 21 21 21 20 21 21 20 20 22 23 21 20 20 17 16 15 14 13
12 12 12 12 13 14 14 14 15 15 15 15 14 14 15 16 15 14 15 16 18 19 19 19 20 20 20 21 21 22 24 24 24 24 23 23 23 22 22 21 20 19 19 19 20 20 20 19 19 18 17 16 15 13
12 11 11 11 12 14 14 13 14 13 14 14 14 14 14 14 14 13 14 15 16 17 18 18 19 20 21 23 24 24 24 23 23 23 23 23 23 22 21 21 21 21 21 21 20 20 19 19 19 17 16 15 13 12
11 11 11 12 12 12 12 12 13 14 13 13 13 13 13 14 14 14 13 13 14 16 17 18 20 20 21 22 23 24 25 26 26 26 26 25 24 20 21 22 21 21 20 20 20 20 20 19 18 17 16 14 14 12
Wind_Direction
29 28 28 32 35 28 28 36 45 50 57 67 72 73 77 81 81 67 58 67 55 50 51 57 58 58 55 52 52 47 59 58 61 67 80 85 92 99 119 128 143 156 162 255 249 241 237 264 261 247 246 258 261 251
29 28 28 34 37 35 41 44 43 46 56 59 70 75 82 89 84 79 54 54 63 60 55 68 73 78 73 70 67 68 61 73 80 76 80 90 101 109 119 118 142 151 158 167 180 236 259 258 258 262 254 255 257 248
27 27 30 33 41 41 43 41 48 59 63 66 73 80 85 92 86 79 59 59 58 63 69 77 63 76 77 72 76 68 64 81 94 98 91 86 96 98 105 109 144 163 151 171 210 240 250 248 261 268 257 248 253 248
27 27 29 30 42 35 35 46 57 65 76 83 88 91 97 102 99 98 80 74 75 72 71 78 75 77 79 76 78 84 81 76 81 98 99 93 89 100 104 115 102 129 136 144 205 249 238 257 275 262 263 242 250 246
25 28 30 25 39 36 36 52 67 77 75 81 92 93 96 102 103 101 90 88 82 74 78 84 70 74 85 83 91 83 80 80 80 76 102 103 104 101 155 74 47 333 359 173 280 315 283 279 282 269 261 241 245 256
24 29 29 21 39 43 40 65 75 78 80 80 84 91 98 100 97 77 76 85 87 86 86 82 70 71 87 88 83 94 84 82 76 79 81 97 96 103 99 67 310 324 341 338 318 332 332 310 325 278 256 257 255 256
23 36 28 24 51 52 51 79 80 80 82 84 87 89 93 97 94 78 66 71 82 84 76 78 76 79 74 78 78 92 98 87 80 75 75 94 99 94 89 106 328 341 1 354 348 334 345 337 306 290 270 263 270 269
25 44 243 43 84 67 76 93 90 89 93 84 84 76 79 85 99 85 72 81 90 79 77 71 71 75 79 74 82 85 93 90 79 75 80 74 83 85 89 307 353 24 14 5 1 353 5 338 330 305 299 290 266 268
26 63 274 244 160 84 118 116 95 91 88 80 78 75 76 81 78 69 62 80 78 76 73 74 69 67 76 81 89 90 101 84 86 79 70 73 73 49 54 346 323 329 4 354 3 350 352 352 334 332 322 300 273 275
25 251 278 256 213 133 157 135 90 87 84 73 73 75 76 68 55 68 77 81 83 87 96 78 76 58 75 88 71 73 79 71 64 64 77 67 62 60 54 40 33 322 336 352 350 341 345 350 347 335 333 317 301 294
25 281 273 266 252 208 155 122 79 67 73 77 74 70 66 71 82 83 83 79 81 78 88 76 76 65 66 56 56 72 70 68 54 52 53 47 50 54 52 31 27 45 6 358 6 354 350 350 345 339 335 327 323 315
272 283 274 270 262 219 103 95 72 77 72 54 50 56 62 67 74 74 60 57 70 64 55 55 45 56 58 55 58 56 61 70 59 66 57 36 39 43 42 34 24 11 1 340 347 349 343 341 342 344 335 329 329 325
285 283 274 265 255 124 97 79 83 61 60 55 62 61 65 67 60 52 36 41 39 42 45 38 34 38 46 56 50 40 46 39 40 34 29 33 41 45 35 28 18 12 359 349 336 339 335 338 339 339 338 343 339 334
290 287 279 266 38 77 76 53 61 69 61 62 64 50 54 49 51 40 32 36 39 35 28 29 31 31 32 28 29 32 26 22 21 14 20 17 28 38 37 25 10 358 0 348 344 333 333 329 334 338 338 335 331 331
290 285 342 339 328 141 74 48 67 72 64 70 64 52 54 42 38 33 33 44 49 31 24 21 24 24 21 21 17 18 13 12 13 10 1 9 20 36 29 18 1 349 349 351 344 341 336 333 330 331 332 341 341 337
285 300 10 332 295 347 38 50 63 74 68 76 71 64 62 48 46 45 35 28 22 23 18 20 15 13 13 13 11 13 5 7 6 7 3 5 21 31 17 8 10 11 3 358 350 344 339 338 334 331 330 329 335 335
278 358 15 327 325 42 59 52 68 76 66 63 65 73 62 49 37 21 25 16 19 8 4 9 7 8 9 7 5 4 1 1 357 8 8 19 23 19 14 9 14 9 6 13 3 352 346 342 338 337 330 328 323 327
329 340 19 316 333 46 64 75 64 64 68 71 61 52 45 45 36 31 19 6 12 14 16 8 9 1 3 358 1 9 16 8 6 29 37 27 25 19 11 7 4 0 4 10 5 2 359 350 341 339 336 333 327 325
249 244 237 219 125 78 69 76 80 65 68 74 63 46 43 39 36 35 32 30 26 27 19 17 15 8 2 20 31 11 355 4 17 32 32 26 19 12 9 8 8 7 18 10 358 352 354 350 344 342 340 334 334 337
253 240 221 99 103 82 84 73 79 76 74 45 46 39 34 37 37 45 45 44 38 29 24 22 16 19 41 47 50 27 32 54 30 20 19 21 25 28 17 9 4 9 19 17 5 348 356 355 351 349 345 342 337 335
298 27 32 60 77 106 91 65 69 67 62 56 43 38 36 44 43 42 43 44 33 32 32 34 44 55 68 64 49 37 46 54 43 29 26 27 31 31 26 23 25 27 26 11 8 357 357 352 350 347 345 340 344 345
348 96 26 51 72 80 93 90 77 49 58 51 46 39 42 39 38 42 46 37 38 42 40 47 50 57 55 49 44 51 73 61 56 52 55 55 47 41 37 36 33 26 14 0 352 345 346 351 346 343 344 344 343 344
249 94 37 49 66 72 76 76 73 64 65 51 45 45 41 41 42 52 42 41 46 47 46 46 54 49 50 46 49 63 76 76 59 53 44 44 41 38 35 30 28 21 11 4 356 354 353 352 353 340 337 336 332 332
239 68 38 41 67 68 73 78 67 61 59 54 49 42 40 39 46 47 40 41 45 46 45 41 42 40 47 63 57 54 58 65 61 50 46 58 47 38 37 35 30 19 15 8 1 0 359 354 343 336 339 336 327 325
155 92 77 99 88 91 91 74 63 63 56 52 51 46 44 47 48 46 42 42 44 42 42 46 53 48 49 49 48 48 57 62 56 50 53 59 51 46 47 40 28 28 29 26 16 4 356 343 337 337 325 330 326 326
172 125 126 121 104 105 71 67 58 56 55 56 53 53 53 51 48 43 44 42 44 44 45 49 53 57 55 50 49 50 50 57 58 62 50 60 63 56 52 47 34 46 37 24 14 5 5 354 347 335 324 330 325 312
171 135 133 130 122 82 60 48 55 57 52 50 53 52 53 43 41 48 49 47 48 48 54 61 58 59 56 54 55 55 59 59 58 58 62 69 69 66 61 54 58 59 54 54 65 55 42 35 344 314 311 313 313 316
160 131 105 98 99 88 71 61 57 51 49 49 53 51 50 49 49 54 53 56 58 60 64 64 64 63 61 60 62 67 67 68 70 73 70 70 74 73 70 69 70 77 77 84 101 107 114 121 162 214 255 270 281 292
110 101 94 83 91 81 78 68 62 60 61 66 58 54 55 57 60 63 63 66 68 70 73 70 72 72 67 63 63 66 70 77 81 81 84 81 80 83 85 83 87 92 93 92 100 114 125 133 148 152 178 207 220 253
62 86 74 76 76 68 62 78 67 62 74 66 58 55 55 58 66 72 73 74 69 69 74 76 78 73 70 69 67 67 67 71 79 84 86 86 88 94 96 96 93 96 103 109 105 106 118 124 131 138 144 150 159 167
42 69 69 79 64 59 58 56 55 61 63 61 60 58 56 58 75 80 80 78 76 76 78 76 74 71 71 71 72 72 69 73 77 82 87 88 91 96 98 101 103 105 107 111 110 111 114 119 121 127 129 133 135 145
81 87 72 74 66 48 59 60 60 59 54 58 56 55 56 61 60 72 89 87 84 79 78 79 74 71 69 68 69 69 72 75 79 83 85 86 89 93 98 101 103 104 106 109 110 110 113 115 115 118 120 124 128 135
80 79 76 60 55 49 53 58 54 46 53 55 56 59 61 59 58 69 93 102 91 87 86 81 78 76 74 73 72 71 70 69 69 70 69 70 79 99 98 97 101 104 107 109 111 110 111 114 113 115 116 118 119 122